Regional Weather Roundup
Issued by NWS

Home | Current Version | Previous Version | Graphics & Text | Print | Product List | Glossary Off
Versions: 1 2 3 4 5 6 7 8 9 10 11 12 13 14 15 16 17 18 19 20 21 22 23 24 25 26 27 28 29 30 31 32 33 34 35 36 37 38 39 40 41 42 43 44 45 46 47 48 49 50

000
ASUS43 KMPX 231901
RWRMN
WEATHER ROUNDUP FOR MINNESOTA
NATIONAL WEATHER SERVICE TWIN CITIES/CHANHASSEN MN
200 PM CDT THU OCT 23 2014


NOTE: "FAIR" INDICATES FEW OR NO CLOUDS BELOW 12,000 FEET WITH NO
SIGNIFICANT WEATHER AND/OR OBSTRUCTIONS TO VISIBILITY. N/A MEANS
CURRENT SKY AND/OR WEATHER CONDITIONS ARE NOT AVAILABLE.

MNZ060>063-068>070-232000-
   Twin Cities Metro

CITY           SKY/WX    TMP DP  RH WIND       PRES   REMARKS
TWIN CITIES    SUNNY     64  51  62 S5        29.97F
ST PAUL        SUNNY     63  51  65 CALM      29.97F
CRYSTAL        SUNNY     65  51  60 VRB5      29.96F
BLAINE         SUNNY     66  54  63 SW5       29.96F
LAKEVILLE      SUNNY     63  52  67 W3        29.98F
EDEN PRAIRIE   SUNNY     65  50  58 SW8       29.96F
SOUTH ST PAUL  SUNNY     65  51  62 S3        29.97F
LAKE ELMO      FAIR      61  54  77 CALM      29.99F
$$
MNZ001>005-007-008-013>017-022>024-027-028-232000-
   Northwest Minnesota

CITY           SKY/WX    TMP DP  RH WIND       PRES   REMARKS
BEMIDJI        SUNNY     66  37  33 W14G21    29.88F
HALLOCK        SUNNY     64  45  48 SW13      29.81S
ROSEAU         SUNNY     64  46  52 SW13G20   29.82S
WARROAD        SUNNY     63  48  59 SW12G17   29.82F
THIEF RVR FALL SUNNY     63  43  48 SW10      29.86F
CROOKSTON      SUNNY     64  46  52 S13       29.86F
FOSSTON        SUNNY     64  45  48 SW12      29.89S
DETROIT LAKES  SUNNY     64  41  42 SW9       29.92F
MOORHEAD       SUNNY     66  45  45 S8        29.89F
PARK RAPIDS    SUNNY     65  42  43 SW13      29.91F
MAHNOMEN       FAIR      64  43  47 SW12      29.89F
$$
MNZ006-009>011-018-025>026-232000-
   North Central Minnesota

CITY           SKY/WX    TMP DP  RH WIND       PRES   REMARKS
BAUDETTE       SUNNY     65  42  43 SW15G23   29.82F
FLAG ISLAND    PTSUNNY   55  46  71 S12       29.78F
INTL FALLS     SUNNY     66  45  46 SW12G20   29.84F
WASKISH        SUNNY     61  46  59 CALM      29.87S
BIG FORK       SUNNY     64  48  55 SW12G17   29.89F
LONGVILLE      SUNNY     63  46  55 SW7       29.92F
GRAND RAPIDS   SUNNY     57  48  72 SW7       29.92F
CRANE LAKE     PTSUNNY   59  48  67 S6        29.90F
ORR            MOSUNNY   63  46  55 S7G16     29.86F
COOK           SUNNY     61  48  63 SW5       29.90F
WALKER         FAIR      62  45  53 SW8       29.91F
$$
MNZ012-019>021-037-232000-
   Northeast Minnesota

CITY           SKY/WX    TMP DP  RH WIND       PRES   REMARKS
DULUTH         CLOUDY    53  48  83 W9        29.95S
ELY            MOSUNNY   55  46  71 S6        29.92F
HIBBING        CLOUDY    55  49  80 S7        29.93F
EVELETH        CLOUDY    52  48  87 S6        29.94F
DULUTH HARBOR  CLOUDY    54  50  87 SW10      29.96F
TWO HARBORS    CLOUDY    55  41  58 W6        29.93F
SILVER BAY     PTSUNNY   52  48  87 SW3       29.93S
GRAND MARAIS     N/A     48  47  96 SW6       29.96F
G MARAIS ARPRT MIX PCPN  45  43  93 S3        29.94F VSB 1/4
$$
MNZ029>031-032-039>041-046>048-054>057-064-232000-
   West Central Minnesota

CITY           SKY/WX    TMP DP  RH WIND       PRES   REMARKS
FERGUS FALLS   SUNNY     64  41  42 SW8       29.92F
WHEATON        SUNNY     66  39  37 SW8       29.93F
MORRIS         SUNNY     68  46  45 SW8       29.93F
ALEXANDRIA     SUNNY     64  43  46 SW13      29.96F
ELBOW LAKE     FAIR      66  45  47 SW10      29.93F
WADENA         SUNNY     64  43  45 SW7       29.92F
GLENWOOD       SUNNY     66  45  45 W7        29.96F
APPLETON       SUNNY     72  36  26 SW8       29.94F
BENSON         SUNNY     66  46  48 SW8       29.95F
ORTONVILLE     SUNNY     72  36  26 SW7       29.93F
MADISON        SUNNY     73  36  25 W9        29.95F
WILLMAR        FAIR      66  43  42 W7        29.98F
$$
MNZ033>034-036-042>043-049>051-058-059-232000-
   Central Minnesota

CITY           SKY/WX    TMP DP  RH WIND       PRES   REMARKS
ST CLOUD       SUNNY     63  51  65 SW8       29.96F
SAUK CENTRE    FAIR      66  44  45 SW9       29.95F
PAYNESVILLE    SUNNY     64  43  45 S9        29.97S
AITKIN         SUNNY     63  52  67 S7        29.93F
PINE RIVER     SUNNY     63  48  59 S6        29.96F
BRAINERD       SUNNY     61  48  62 SW8       29.95F
STAPLES        SUNNY     64  45  48 SW7       29.93F
LONG PRAIRIE   FAIR      64  45  48 S7        29.95F
LITTLE FALLS   SUNNY     61  46  59 S7        29.95F
LITCHFIELD     SUNNY     66  50  55 SW3       29.97F
BUFFALO        SUNNY     62  51  69 S5        29.98F
MAPLE LAKE     SUNNY     62  54  73 SW3       29.98F
$$
MNZ037-044-045-052-053-232000-
   East Central Minnesota

CITY           SKY/WX    TMP DP  RH WIND       PRES   REMARKS
PRINCETON      SUNNY     63  52  67 S5        29.97F
MORA           MOSUNNY   59  50  72 SW6       29.98F
CAMBRIDGE      SUNNY     64  52  63 SW7       29.95F
RUSH CITY      MOSUNNY   60  52  74 CALM      29.96F
MOOSE LAKE     CLOUDY    55  50  82 S6        29.94F
HINCKLEY       CLOUDY    55  52  88 SW6       29.97F
CLOQUET        CLOUDY    54  48  82 SW6       29.95F
MCGREGOR       SUNNY     59  50  72 SW7       29.95F
$$
MNZ071>073-080-081-089-090-097-098-232000-
   Southwest Minnesota

CITY           SKY/WX    TMP DP  RH WIND       PRES   REMARKS
MONTEVIDEO     SUNNY     72  66  83 SW3       29.96F
GRANITE FALLS  SUNNY     68  44  41 SW3       29.98F
CANBY          SUNNY     70  35  27 W12G17    29.97F
MARSHALL       SUNNY     70  37  30 W10       29.97F
REDWOOD FALLS  SUNNY     69  42  37 W7        29.97F
OLIVIA         SUNNY     70  46  43 W8        29.96F
PIPESTONE      SUNNY     66  46  48 W9        30.00F
WINDOM         SUNNY     70  37  30 W12G18    29.99F
WORTHINGTON    SUNNY     66  41  39 W8        30.01F
JACKSON        SUNNY     70  39  32 W9        30.00F
TRACY          SUNNY     70  38  30 W6        29.99F
SLAYTON        SUNNY     66  41  39 SW9       30.01S
$$
MNZ065>067-074>077-082>085-091>093-232000-
   South Central Minnesota

CITY           SKY/WX    TMP DP  RH WIND       PRES   REMARKS
MANKATO        SUNNY     66  45  45 W7        29.98F
NEW ULM        SUNNY     68  46  45 W8        29.98F
ST JAMES       SUNNY     70  46  43 SW8       29.99F
FAIRMONT       SUNNY     70  19  14 W14       29.99F
GLENCOE        SUNNY     66  51  58 SW5       29.97F
FARIBAULT      SUNNY     63  54  72 CALM      29.99F
OWATONNA       SUNNY     63  52  67 SW3       29.99F
WASECA         SUNNY     63  45  51 W6        30.00F
ALBERT LEA     SUNNY     64  52  63 CALM      29.99F
$$
MNZ078>079-086>088-094>096-232000-
   Southeast Minnesota

CITY           SKY/WX    TMP DP  RH WIND       PRES   REMARKS
ROCHESTER      CLOUDY    54  51  90 W5        30.02F
RED WING       CLOUDY    55  52  88 CALM      30.00F
STANTON        SUNNY     61  52  72 CALM      29.98F
DODGE CENTER   CLOUDY    55  54  94 CALM      30.01F
WINONA         CLOUDY    52  48  87 SW5       30.03S
AUSTIN         PTSUNNY   59  52  77 CALM      30.01F
PRESTON        CLOUDY    49  48  95 SW5       30.03S FOG
$$
ABBREVIATIONS USED IN REMARKS
   TC - TEMPERATURES IN CELSIUS
  WCI - WIND CHILL INDEX
   HX - HEAT INDEX
  VSB - VISIBILITY
$$



USA.gov is the U.S. government's official web portal to all federal, state and local government web resources and services.